Wind_Speed
27 27 26 25 25 24 25 28 29 27 25 24 21 21 19 18 17 17 17 16 16 18 18 19 18 16 13 6 4 3 5 4 3 7 8 5 1 1 1 3 2 3 4 5 9 7 7
31 31 30 28 27 26 25 24 25 28 28 25 24 24 22 19 18 17 17 16 16 18 18 18 17 15 11 5 5 2 3 4 5 8 6 2 3 6 4 3 1 5 7 2 5 6 7
36 33 32 32 30 28 27 26 24 23 25 28 25 24 22 20 18 18 18 17 17 18 19 18 16 16 14 13 8 6 1 3 5 6 3 3 6 6 7 4 5 6 0 2 2 5 3
37 37 36 33 32 32 29 27 26 24 22 23 26 24 23 23 19 18 18 17 18 18 18 18 15 15 10 5 13 10 5 3 3 4 6 6 7 10 3 7 5 4 3 1 1 2 3
36 37 38 36 34 32 33 30 28 26 24 20 22 24 22 21 19 17 17 18 18 19 19 17 13 8 9 5 13 10 8 5 2 4 10 7 7 4 3 2 4 6 1 4 3 4 3
35 35 38 37 35 34 33 33 29 27 25 22 20 21 21 18 19 18 16 18 18 18 16 13 13 8 9 4 6 10 11 10 7 6 3 1 1 2 3 3 2 1 2 3 2 3 2
43 39 35 39 36 33 32 31 32 30 26 24 22 20 19 17 19 18 15 13 10 7 7 9 2 6 7 4 8 9 10 9 7 2 2 3 4 2 5 5 4 3 2 3 5 4 6
40 43 43 37 40 37 33 31 29 29 28 25 23 20 19 17 17 18 14 10 6 5 11 16 21 28 25 23 9 8 10 8 6 4 1 5 3 6 4 3 4 2 4 6 6 3 5
43 37 46 47 39 40 38 34 30 26 23 25 25 22 19 14 15 19 15 11 10 9 6 13 19 18 24 17 10 10 14 12 4 4 4 5 4 2 3 3 4 4 2 5 4 5 1
49 44 41 47 48 41 39 37 33 30 26 24 25 21 16 12 14 18 14 7 11 6 3 7 6 8 15 10 6 14 16 11 2 8 6 4 4 3 1 2 4 2 5 3 5 1 1
52 49 44 40 51 48 41 39 36 31 26 23 24 22 17 16 10 6 7 3 8 7 3 3 4 2 15 17 8 14 15 11 8 6 6 8 2 5 3 5 5 8 3 2 2 2 3
54 52 50 46 41 50 48 41 38 35 30 25 22 21 20 21 23 13 10 1 5 3 7 4 7 7 7 9 5 8 15 6 5 5 1 5 2 4 5 4 6 1 2 6 4 3 2
55 53 50 49 44 41 53 45 41 36 32 26 23 22 26 27 23 20 16 4 4 5 1 5 5 6 6 6 4 5 7 6 6 4 3 2 3 2 3 2 2 3 5 3 3 4 4
56 56 53 50 47 42 42 54 40 38 34 29 25 22 29 31 23 17 9 4 10 5 6 3 1 4 8 6 6 5 6 6 2 4 3 5 5 6 3 6 7 3 6 5 2 2 3
56 57 56 53 48 45 42 51 48 41 34 30 26 24 32 34 28 24 11 10 7 6 4 3 2 5 4 4 6 4 8 8 9 8 7 4 4 1 1 1 2 3 2 4 6 3 2
54 55 57 55 50 47 43 45 50 41 36 33 30 26 36 33 29 23 5 17 7 5 3 2 7 6 9 7 6 8 9 6 7 10 5 7 2 1 1 2 3 2 6 3 3 2 3
55 53 55 57 55 49 47 43 50 46 37 33 30 15 15 34 30 14 10 10 16 20 2 2 2 2 7 8 9 6 9 2 8 6 6 5 4 4 0 5 8 2 2 4 5 4 4
52 55 55 56 61 50 48 44 48 49 41 37 29 7 20 42 17 14 17 7 15 19 6 4 3 4 4 7 7 8 10 10 17 13 9 7 6 4 9 3 3 5 6 6 5 4 1
54 54 54 57 58 58 49 45 48 50 46 48 20 14 27 50 14 17 13 13 7 14 8 6 4 4 1 4 4 6 7 6 15 9 9 7 1 2 7 5 4 4 4 3 5 3 6
54 54 53 55 59 63 50 46 51 54 51 51 13 8 17 35 41 19 23 16 23 14 5 10 2 3 1 3 4 7 7 5 13 12 8 12 4 7 8 8 4 4 6 5 5 4 4
56 54 54 54 61 66 53 48 53 58 54 53 15 9 15 14 24 21 19 14 21 17 22 12 2 5 3 3 1 4 2 2 2 7 6 7 7 5 4 4 4 5 4 8 7 5 6
56 54 52 51 61 67 57 51 56 62 56 41 8 8 18 9 31 24 13 24 24 23 8 16 6 9 8 5 7 5 3 4 6 5 6 1 5 4 2 2 2 3 5 5 4 3 5
53 53 51 51 67 66 58 55 62 62 60 33 34 26 12 20 20 18 30 18 20 18 25 11 23 17 8 20 26 21 15 8 2 5 9 7 7 4 4 3 4 7 9 9 6 5 7
47 48 49 47 72 67 56 52 72 67 68 39 46 15 9 7 13 24 18 21 21 22 13 25 14 13 11 7 5 4 7 7 9 5 1 8 7 2 3 2 2 7 1 3 8 7 6
45 45 49 47 68 64 57 63 64 65 66 43 42 17 5 4 12 12 18 25 20 24 16 16 25 12 6 11 3 1 4 3 2 5 5 2 6 3 5 4 5 4 5 7 8 8 7
44 42 42 62 67 58 64 62 66 62 56 51 27 42 8 2 5 17 14 19 18 14 9 15 33 25 8 2 2 6 6 6 5 3 4 5 6 5 3 5 8 8 5 8 4 4 8
42 43 49 68 62 61 61 62 53 54 55 51 39 30 17 2 6 13 17 15 22 18 1 6 23 10 17 1 3 3 5 4 6 10 6 3 3 5 2 3 7 8 4 10 6 8 18
36 42 64 64 51 59 63 58 54 52 55 53 45 35 27 9 25 6 25 21 23 32 13 8 8 10 3 6 4 4 3 6 3 4 7 7 7 3 3 3 7 9 5 9 7 3 27
62 62 49 47 56 54 53 54 47 49 51 47 34 42 44 15 9 13 10 19 28 30 28 27 12 9 15 4 1 2 2 0 5 4 0 3 6 7 9 7 4 14 6 15 9 13 25
Wind_Direction
267 264 263 263 264 264 263 258 257 259 263 269 272 271 277 289 301 309 309 309 312 315 320 326 326 327 337 317 258 319 348 32 117 149 148 147 234 234 238 241 271 214 271 314 255 163 113
269 267 265 263 262 263 263 263 262 256 256 260 267 276 272 279 293 304 307 307 308 311 317 322 322 319 321 285 231 261 23 68 113 142 168 173 324 315 270 255 197 267 305 31 95 123 123
267 268 267 265 263 262 262 263 263 264 259 255 260 267 277 276 283 296 304 307 304 308 313 315 316 313 300 263 220 216 194 96 133 162 201 298 333 307 320 307 304 294 350 65 100 158 136
263 264 266 265 264 263 262 261 264 262 263 261 254 260 270 278 279 288 301 305 300 302 305 306 306 307 270 250 209 213 207 176 178 217 248 295 316 301 270 304 344 30 63 132 163 128 147
271 266 260 264 262 263 260 262 260 263 260 261 257 253 261 274 278 284 298 304 299 298 296 292 292 294 269 230 219 211 229 221 225 282 281 269 288 274 331 46 9 9 50 6 36 191 115
258 268 265 262 260 262 261 260 260 257 259 259 259 252 256 264 273 282 296 306 301 294 285 278 262 287 248 184 196 226 230 239 249 301 295 204 279 39 32 69 159 23 38 329 274 248 162
256 252 260 265 262 258 260 260 260 256 252 253 254 251 248 257 270 281 293 314 302 287 261 231 226 247 278 231 269 226 217 215 230 247 248 40 60 208 229 204 150 137 126 247 239 233 157
268 253 249 254 262 259 257 260 260 257 255 246 248 249 244 248 264 276 286 289 275 288 306 277 258 255 254 262 285 218 197 169 162 199 182 24 241 219 179 187 191 118 6 321 284 38 164
271 270 249 248 250 257 257 257 257 257 254 250 239 240 233 241 256 268 280 279 265 282 281 282 247 242 237 229 226 218 185 188 150 157 192 173 260 287 159 138 270 22 295 297 253 338 77
267 266 267 249 245 245 252 253 253 255 250 250 238 234 218 224 261 266 270 231 266 218 307 265 226 236 189 178 229 203 192 169 127 200 161 226 275 248 104 162 131 305 205 226 269 21 197
264 262 262 259 243 243 243 248 248 247 252 246 240 227 203 209 226 240 179 259 138 149 314 222 182 204 178 169 155 198 197 174 161 169 121 244 226 203 195 215 154 230 174 293 309 95 70
261 260 258 257 255 246 239 240 244 242 243 240 245 221 200 212 227 217 179 98 188 69 244 301 161 162 157 190 178 143 176 177 166 116 162 239 241 198 220 196 182 184 92 43 42 66 49
259 257 255 253 252 248 237 235 238 240 235 234 233 222 206 206 224 222 240 240 213 201 282 233 190 161 181 162 188 159 151 147 143 117 240 290 213 260 210 131 78 101 64 349 7 16 219
255 255 252 250 248 247 242 232 233 234 227 226 221 223 212 207 206 218 217 214 224 215 220 303 191 114 185 143 213 174 125 156 170 105 115 179 299 182 197 197 178 149 147 150 218 195 257
252 251 251 248 243 242 240 228 229 225 223 215 212 221 216 208 200 211 200 222 198 225 219 228 88 130 225 213 150 141 176 184 178 168 164 155 271 277 212 350 148 168 152 162 106 3 50
250 247 244 241 239 236 236 230 227 225 215 211 207 220 222 204 198 201 204 229 219 226 328 23 195 179 181 193 155 164 180 198 191 185 168 201 186 255 266 144 231 173 157 76 13 170 253
251 245 242 237 235 230 230 228 224 219 204 205 198 212 236 194 194 197 210 217 221 253 291 324 289 274 209 171 169 186 199 264 189 159 131 139 130 272 104 203 195 131 186 60 114 130 172
248 245 239 236 227 225 225 224 217 213 193 193 190 202 190 181 185 212 221 204 227 228 242 256 286 239 217 184 162 185 193 201 182 151 159 198 149 201 217 275 187 169 183 144 128 208 141
242 241 239 233 225 221 218 217 213 205 189 183 195 187 185 180 188 213 208 204 244 215 205 186 245 220 333 206 181 187 198 227 166 149 160 179 197 65 337 356 347 212 190 124 108 95 192
241 235 237 230 220 217 211 213 206 202 188 187 183 176 175 193 209 203 197 203 212 231 242 199 227 251 357 303 238 212 203 200 190 194 185 147 141 165 200 211 170 176 177 167 139 123 180
237 233 230 229 215 212 206 207 200 194 188 187 193 207 189 184 209 206 196 189 199 213 214 191 236 222 166 236 261 189 149 111 114 171 137 140 193 178 217 216 181 201 182 166 183 194 168
229 224 222 225 212 209 203 202 195 198 184 186 179 199 194 196 204 204 205 206 198 205 173 213 205 196 209 208 203 178 161 196 187 188 152 150 200 163 136 101 82 233 249 218 232 189 245
218 219 215 218 203 202 199 199 195 195 183 191 207 199 201 214 184 191 213 195 197 196 230 199 209 217 189 223 238 261 247 252 225 190 168 143 133 122 219 23 47 317 219 214 202 198 181
216 213 209 212 196 198 194 191 188 187 191 186 197 185 209 193 190 208 189 202 195 207 208 214 233 215 217 260 134 98 83 103 105 42 76 137 114 95 157 53 256 252 306 197 199 235 230
208 204 201 201 190 192 189 186 185 184 189 189 195 188 183 236 197 201 195 198 205 215 223 232 227 207 242 187 76 70 333 41 49 43 10 54 123 102 139 189 290 281 210 173 174 253 193
198 198 197 189 187 185 184 188 182 181 188 197 192 205 233 337 218 197 190 181 197 204 228 240 238 250 246 107 92 176 202 170 204 102 76 70 63 116 134 159 212 234 234 169 106 275 176
189 188 184 181 183 181 185 184 187 188 194 204 199 206 212 248 255 204 197 191 182 197 201 170 201 231 226 178 154 172 236 181 164 160 165 66 31 148 117 206 286 246 232 150 133 239 175
183 180 176 175 178 178 181 188 191 186 194 201 206 206 207 197 252 288 203 185 189 193 200 154 158 229 58 182 167 199 150 215 132 169 174 153 146 170 92 68 282 182 124 172 216 216 180
157 160 162 166 170 175 181 177 188 194 197 202 207 209 203 239 234 257 235 206 202 208 194 186 192 157 188 161 149 127 125 110 152 204 67 198 182 176 177 209 221 191 217 211 226 182 180
Height
1518 1519 1519 1519 1520 1520 1520 1521 1521 1523 1524 1524 1524 1524 1524 1523 1522 1520 1518 1517 1515 1513 1510 1508 1506 1504 1502 1502 1499 1497 1495 1493 1495 1497 1499 1499 1500 1499 1499 1497 1497 1497 1490 1489 1487 1489 1491
1513 1513 1514 1514 1515 1515 1516 1517 1517 1518 1518 1520 1521 1521 1520 1520 1519 1518 1517 1515 1513 1511 1509 1506 1504 1503 1502 1502 1497 1496 1496 1494 1496 1498 1499 1499 1500 1498 1496 1496 1496 1491 1489 1489 1489 1490 1492
1507 1508 1508 1509 1510 1510 1511 1512 1513 1513 1514 1514 1516 1517 1517 1516 1516 1515 1515 1513 1510 1509 1507 1505 1503 1501 1499 1495 1495 1495 1495 1494 1496 1497 1499 1500 1499 1499 1495 1494 1493 1490 1491 1491 1492 1491 1493
1499 1500 1502 1503 1504 1505 1506 1506 1508 1509 1510 1510 1511 1513 1514 1514 1513 1513 1512 1510 1508 1506 1504 1503 1501 1500 1493 1491 1493 1493 1494 1494 1496 1497 1498 1499 1499 1497 1495 1494 1492 1492 1493 1498 1491 1491 1494
1493 1493 1493 1496 1497 1499 1499 1501 1503 1504 1505 1506 1507 1508 1510 1510 1510 1510 1509 1507 1505 1503 1500 1500 1499 1498 1490 1489 1491 1492 1492 1493 1495 1496 1497 1497 1497 1497 1494 1497 1501 1502 1506 1500 1496 1492 1493
1484 1486 1487 1487 1489 1492 1493 1495 1497 1498 1501 1502 1504 1504 1506 1507 1508 1508 1507 1505 1501 1499 1496 1496 1495 1500 1488 1488 1489 1489 1490 1491 1494 1495 1496 1496 1496 1498 1499 1502 1515 1507 1505 1502 1502 1493 1494
1475 1477 1479 1481 1482 1483 1487 1489 1491 1493 1495 1497 1499 1500 1501 1503 1505 1505 1505 1504 1503 1498 1494 1489 1490 1487 1485 1486 1487 1486 1487 1489 1492 1494 1497 1495 1502 1505 1498 1497 1495 1498 1501 1504 1498 1490 1493
1464 1467 1470 1472 1475 1476 1479 1484 1486 1488 1489 1492 1494 1495 1499 1499 1503 1502 1504 1504 1502 1500 1492 1485 1483 1482 1482 1485 1487 1483 1485 1488 1490 1496 1496 1500 1503 1493 1490 1494 1494 1494 1499 1501 1491 1489 1491
1455 1456 1460 1463 1466 1469 1471 1476 1480 1482 1484 1487 1489 1491 1494 1499 1498 1501 1502 1503 1501 1498 1496 1478 1474 1474 1476 1481 1482 1480 1482 1484 1487 1494 1496 1502 1493 1489 1487 1492 1493 1496 1498 1499 1499 1491 1491
1444 1446 1449 1451 1457 1459 1463 1467 1473 1477 1479 1482 1485 1487 1491 1496 1499 1498 1500 1502 1499 1496 1501 1478 1470 1466 1470 1475 1478 1477 1478 1481 1486 1492 1497 1497 1490 1490 1490 1491 1494 1501 1491 1494 1495 1498 1506
1431 1434 1438 1443 1446 1449 1455 1458 1465 1470 1474 1478 1480 1483 1489 1492 1495 1495 1498 1500 1497 1497 1510 1467 1464 1464 1464 1469 1469 1471 1475 1478 1484 1488 1494 1496 1490 1492 1491 1490 1489 1496 1489 1491 1489 1497 1501
1417 1421 1425 1430 1435 1439 1444 1450 1456 1462 1468 1472 1477 1479 1484 1487 1491 1495 1497 1497 1500 1503 1504 1466 1460 1461 1465 1465 1467 1468 1472 1476 1480 1486 1489 1490 1487 1488 1487 1483 1485 1485 1489 1496 1501 1505 1521
1402 1407 1412 1418 1424 1428 1434 1441 1446 1454 1461 1466 1472 1476 1479 1481 1488 1492 1495 1497 1503 1500 1464 1461 1459 1459 1461 1465 1467 1467 1471 1476 1485 1496 1497 1489 1486 1483 1484 1485 1485 1488 1499 1520 1519 1529 1526
1387 1392 1397 1405 1411 1417 1423 1430 1437 1445 1453 1459 1466 1472 1472 1476 1483 1490 1493 1496 1494 1471 1464 1453 1453 1458 1463 1460 1466 1467 1472 1478 1476 1482 1498 1500 1502 1484 1480 1482 1487 1488 1495 1521 1520 1535 1518
1370 1376 1382 1390 1398 1406 1412 1420 1429 1435 1446 1453 1461 1466 1467 1470 1479 1485 1492 1486 1472 1469 1457 1455 1452 1460 1463 1459 1461 1465 1471 1475 1472 1476 1490 1497 1492 1480 1479 1479 1481 1489 1497 1494 1519 1529 1526
1353 1359 1368 1375 1385 1393 1401 1410 1419 1428 1437 1448 1453 1459 1457 1467 1475 1481 1484 1467 1459 1457 1455 1453 1458 1453 1463 1462 1462 1466 1472 1464 1466 1468 1469 1481 1490 1481 1479 1479 1480 1482 1486 1504 1513 1513 1517
1336 1343 1351 1360 1369 1380 1390 1399 1409 1420 1429 1442 1450 1454 1446 1462 1471 1473 1466 1459 1456 1453 1456 1456 1453 1452 1452 1457 1459 1466 1465 1459 1458 1465 1468 1476 1483 1488 1482 1483 1483 1488 1491 1498 1502 1515 1520
1319 1326 1335 1344 1353 1366 1378 1389 1398 1410 1419 1434 1438 1444 1442 1452 1460 1456 1449 1455 1454 1452 1454 1453 1453 1451 1449 1450 1455 1460 1461 1455 1450 1456 1471 1470 1482 1500 1485 1476 1474 1477 1483 1490 1513 1507 1525
1303 1310 1318 1329 1340 1350 1365 1377 1388 1399 1408 1419 1428 1434 1439 1442 1443 1439 1443 1448 1451 1449 1450 1451 1452 1447 1445 1446 1452 1452 1453 1447 1449 1453 1462 1467 1483 1503 1492 1485 1477 1477 1478 1482 1493 1505 1510
1285 1293 1303 1313 1324 1337 1352 1366 1377 1389 1399 1410 1421 1425 1428 1434 1423 1431 1435 1440 1446 1445 1446 1447 1447 1447 1446 1445 1446 1449 1449 1448 1447 1448 1450 1455 1473 1479 1492 1482 1475 1476 1475 1481 1484 1507 1503
1266 1277 1287 1298 1310 1323 1340 1354 1367 1379 1390 1402 1406 1406 1402 1408 1417 1418 1425 1427 1438 1438 1440 1443 1446 1447 1446 1449 1445 1447 1445 1447 1448 1448 1452 1455 1470 1472 1469 1467 1468 1468 1467 1477 1479 1480 1489
1248 1261 1273 1285 1297 1311 1328 1342 1356 1369 1384 1395 1395 1398 1400 1398 1410 1420 1418 1415 1424 1434 1433 1438 1442 1442 1446 1449 1445 1446 1445 1446 1445 1449 1451 1454 1466 1465 1470 1470 1469 1469 1469 1471 1472 1472 1475
1234 1247 1261 1273 1284 1299 1317 1333 1348 1359 1376 1382 1392 1393 1393 1393 1401 1413 1393 1406 1420 1433 1430 1432 1435 1437 1440 1438 1436 1439 1442 1442 1443 1443 1448 1454 1467 1477 1476 1478 1474 1485 1471 1465 1464 1463 1464
1223 1237 1251 1263 1273 1290 1309 1323 1336 1349 1358 1367 1379 1387 1390 1385 1390 1384 1401 1410 1415 1419 1425 1430 1433 1436 1436 1436 1437 1438 1439 1439 1438 1442 1443 1453 1463 1476 1491 1489 1497 1458 1454 1454 1458 1458 1457
1215 1230 1244 1257 1268 1285 1302 1317 1331 1345 1354 1367 1375 1383 1387 1388 1387 1393 1400 1407 1417 1422 1422 1424 1429 1433 1435 1436 1441 1444 1451 1442 1444 1444 1444 1442 1457 1479 1483 1491 1473 1456 1455 1456 1456 1454 1450
1212 1226 1239 1253 1265 1281 1298 1313 1329 1342 1356 1368 1375 1380 1385 1387 1386 1391 1395 1401 1409 1415 1424 1422 1429 1431 1435 1437 1447 1446 1449 1442 1449 1444 1445 1446 1450 1461 1491 1486 1485 1456 1442 1442 1444 1461 1444
1211 1225 1237 1249 1265 1282 1297 1313 1328 1343 1354 1363 1373 1381 1389 1391 1386 1386 1386 1394 1404 1411 1415 1421 1425 1430 1433 1444 1453 1451 1444 1435 1444 1442 1451 1460 1467 1470 1496 1487 1467 1444 1440 1442 1460 1453 1435
1212 1224 1238 1252 1268 1284 1299 1313 1328 1341 1352 1360 1369 1378 1387 1387 1384 1385 1387 1388 1397 1400 1404 1413 1427 1426 1431 1435 1440 1440 1449 1436 1439 1432 1437 1442 1460 1474 1485 1486 1466 1434 1442 1449 1436 1430 1432
1213 1227 1243 1259 1274 1288 1301 1316 1329 1340 1350 1359 1368 1376 1387 1386 1382 1381 1382 1384 1388 1393 1402 1406 1403 1407 1414 1423 1432 1432 1437 1443 1431 1439 1431 1436 1431 1444 1448 1446 1431 1430 1429 1429 1429 1427 1432